Regional Weather Roundup
Issued by NWS

Home | Current Version | Previous Version | Graphics & Text | Print | Product List | Glossary On
Versions: 1 2 3 4 5 6 7 8 9 10 11 12 13 14 15 16 17 18 19 20 21 22 23 24 25 26 27 28 29 30 31 32 33 34 35 36 37 38 39 40 41 42 43 44 45 46 47 48 49 50
000
ASUS45 KPSR 020910
RWRAZ

ARIZONA HOURLY REGIONAL WEATHER ROUNDUP
NATIONAL WEATHER SERVICE PHOENIX AZ
200 AM MST THU JUL 02 2015

NOTE: FAIR INDICATES FEW OR NO CLOUDS BELOW 12,000 FEET WITH NO
SIGNIFICANT WEATHER AND/OR OBSTRUCTIONS TO VISIBILITY.

AZZ001>003-036-021000-
NORTHWEST ARIZONA

CITY           SKY/WX    TMP DP  RH WIND       PRES   REMARKS
BULLHEAD CITY  CLOUDY    90  61  37 SW6       29.86S
KINGMAN        CLOUDY    78  58  49 S5        30.05S
$$

AZZ004>008-015-016-018-021000-
NORTH CENTRAL ARIZONA

CITY           SKY/WX    TMP DP  RH WIND       PRES   REMARKS
GRAND CANYON   CLOUDY    63  58  83 SE5       30.29S
WILLIAMS       CLOUDY    63  57  82 S9        30.37S
PRESCOTT       CLOUDY    72  60  66 CALM      30.18F
FLAGSTAFF      CLOUDY    59  58  96 CALM      30.32F
PAYSON         CLOUDY    73  55  53 E3        30.19F
PAGE           CLOUDY    85  47  26 S12G20    30.04S
$$

AZZ009>014-017-021000-
NORTHEAST ARIZONA

CITY           SKY/WX    TMP DP  RH WIND       PRES   REMARKS
WINSLOW        CLOUDY    67  61  81 CALM      30.16F
SAINT JOHNS    CLOUDY    64  58  80 S8        30.19F
WINDOW ROCK    CLOUDY    65  52  62 NW18G25   30.27F
SHOW LOW       CLOUDY    61  52  72 S3        30.27F
$$

AZZ023-021000-
GREATER PHOENIX AREA

CITY           SKY/WX    TMP DP  RH WIND       PRES   REMARKS
PHOENIX        CLOUDY    91  58  32 W10       29.88S
BUCKEYE        CLOUDY    82  57  42 CALM      29.91R
LUKE AFB       CLOUDY    88  59  37 SW10      29.88S
DEER VALLEY    CLOUDY    87  58  37 SW5       29.90F
SCOTTSDALE     CLOUDY    88  57  34 SW6       29.92F
$$

AZZ027-028-021000-
SOUTHWEST MARICOPA COUNTY AND PINAL COUNTY

CITY           SKY/WX    TMP DP  RH WIND       PRES   REMARKS
CASA GRANDE    PTCLDY    84  57  39 W8        29.92S
GILA BEND      FAIR      84  60  44 SW6       29.89F
$$

AZZ503-504-507>509-021000-
SOUTHEAST ARIZONA

CITY           SKY/WX    TMP DP  RH WIND       PRES   REMARKS
TUCSON         CLEAR     76  65  68 S3        30.03S
DAVIS-MONTHAN  CLEAR     75  65  71 S5        30.01S
NOGALES        PTCLDY    66  62  87 CALM      30.12R
SIERRA VISTA   CLEAR     71  60  66 W12       30.16S
DOUGLAS        CLEAR     71  59  65 NW8       30.10S
SAFFORD        CLEAR     81  58  45 NW14      29.98S
$$

AZZ020-021-025-026-031-021000-
SOUTHWEST ARIZONA

CITY           SKY/WX    TMP DP  RH WIND       PRES   REMARKS
YUMA           CLEAR     82  66  58 CALM      29.85S
$$

CAZ031-033-041-043-047-048-061-021000-
SOUTHERN CALIFORNIA

CITY           SKY/WX    TMP DP  RH WIND       PRES   REMARKS
DOWNTOWN L.A.  CLOUDY    70  62  76 CALM      29.94F
L.A. AIRPORT   CLOUDY    66  61  84 NW6       29.96S
SAN DIEGO      MOCLDY    73  65  75 CALM      29.96S
BURBANK        CLOUDY    73  59  61 SE3       29.96R
ONTARIO        MOCLDY    72  59  63 W3        29.96F
RIVERSIDE      MOCLDY    73  60  63 CALM      29.97S
PALM SPRINGS   PTCLDY    86  61  42 CALM      29.88S
EL CENTRO NAS  CLEAR     81  67  62 S8        29.84S
IMPERIAL       CLEAR     83  67  58 SE6       29.82S
BLYTHE         MOCLDY    83  66  56 S8        29.85S
NEEDLES        CLOUDY    90  60  36 W7        29.87S
$$

NVZ020-UTZ003-021000-
SOUTHERN NEVADA-UTAH

CITY           SKY/WX    TMP DP  RH WIND       PRES   REMARKS
LAS VEGAS      CLOUDY    91  55  29 S10G18    29.88R
SALT LAKE CITY CLOUDY    78  51  38 S6        30.02S
$$

NMZ009-TXZ055-021000-
NEW MEXICO-WEST TEXAS

CITY           SKY/WX    TMP DP  RH WIND       PRES   REMARKS
ALBUQUERQUE    CLOUDY    79  49  34 E17       30.11F
EL PASO        PTCLDY    82  50  32 E5        29.99R
$$


........................KEY........................
SKY/WX - SKY CONDITION/WEATHER
TMP    - TEMPERATURE IN FAHRENHEIT
DP     - DEW POINT IN FAHRENHEIT
RH     - RELATIVE HUMIDITY IN PERCENT
WIND   - DIRECTION AND SPEED IN MILES PER HOUR (MPH)
VRB    - VARIABLE WIND DIRECTION
PRES   - MEAN SEA LEVEL PRESSURE IN INCHES OF MERCURY
         F - FALLING PRESSURE   R - RISING PRESSURE
         S - STEADY PRESSURE
VSB    - VISIBILITY IN MILES
HX     - HEAT INDEX IN FAHRENHEIT
WCI    - WIND CHILL INDEX IN FAHRENHEIT
TC     - TEMPERATURE IN CELSIUS WHICH IS ALSO KNOWN AS
         TEMPERATURE IN CENTIGRADE
AFB    - AIR FORCE BASE
         LUKE AFB IS LUKE AIR FORCE BASE
         DAVIS-MONTHAN IS DAVIS-MONTHAN AIR FORCE BASE
NAS    - NAVAL AIR STATION
         EL CENTRO NAS IS EL CENTRO NAVAL AIR STATION
N/A    - NOT AVAILABLE




USA.gov is the U.S. government's official web portal to all federal, state and local government web resources and services.